Terminal Aerodrome Forecast
Issued by NWS

Home | Current Version | Previous Version | Text Only | Print | Product List | Glossary On
Versions: 1 2 3 4 5 6 7 8 9 10 11 12 13 14 15 16 17 18 19 20 21 22 23 24 25 26 27 28 29 30 31 32 33 34 35 36 37 38 39 40 41 42 43 44 45 46 47 48 49 50
000
FTPA31 PHFO 231400 AAB
TAFLNY
TAF AMD
PHNY 231410Z 2314/2412 05012KT P6SM SCT022 BKN250
      TEMPO 2314/2317 BKN020
     FM232100 05015G25KT P6SM SCT035
     FM240700 05012KT P6SM SCT022 BKN250
      AMD NOT SKED=

USA.gov is the U.S. government's official web portal to all federal, state and local government web resources and services.